Weather History for Texarkana, AR

Change the Weather History Date:

Monday, November 5, 2012

  Actual Average Record
Temperature  
Mean Temperature 58 °F 58 °F  
Max Temperature 67 °F 69 °F 85 °F (1924)
Min Temperature 49 °F 47 °F 26 °F (1991)
Degree Days  
Heating Degree Days 7 8  
Month to date heating degree days 16 37  
Since 1 July heating degree days 151 155  
Cooling Degree Days 0 1  
Month to date cooling degree days 11 5  
Year to date cooling degree days 2786 2193  
Growing Degree Days 7 (Base 50)    
Moisture  
Dew Point 49 °F    
Average Humidity 79    
Maximum Humidity 100    
Minimum Humidity 58    
Precipitation  
Precipitation 0.00 in 0.15 in 1.26 in (1951)
Month to date precipitation 0.16 0.75  
Year to date precipitation 26.72 40.53  
Snow  
Snow 0.00 in - - ()
Month to date snowfall 0.0  
Since 1 July snowfall 0.0  
Since 1 September snowfall 0.0  
Snow Depth 0.00 in    
Sea Level Pressure  
Sea Level Pressure 30.03 in    
Wind  
Wind Speed 5 mph (NNW)    
Max Wind Speed 13 mph    
Max Gust Speed 16 mph    
Visibility 10 miles    
Events      
T = Trace of Precipitation, MM = Missing Value Source: NWS Daily Summary

Daily Weather History Graph

Daily Weather History Graph

Search for Another Location

Airport:

Trip Planner

Search our weather history database for the weather conditions in past years. The results will help you decide how hot, cold, wet, or windy it might be!

Date:

Astronomy

Nov. 05, 2012 Rise Set
Actual Time 6:38 AM CST 5:20 PM CST
Civil Twilight 6:12 AM CST 5:45 PM CST
Nautical Twilight 5:43 AM CST 6:15 PM CST
Astronomical Twilight 5:14 AM CST 6:44 PM CST
Moon 10:57 PM CST (11/5) 11:57 AM CST (11/5)
Length of Visible Light 11h 33m
Length of Day
10h 41m
Waning Gibbous, 62% of the Moon is Illuminated
Nov 5
Waning Gibbous
Nov 6
Last Quarter
Nov 13
New
Nov 20
First Quarter
Nov 28
Full

Hourly Weather History & Observations

Time (CST) Temp. Dew Point Humidity Pressure Visibility Wind Dir Wind Speed Gust Speed Precip Events Conditions
12:53 AM 54.0 °F 50.0 °F 86% 30.09 in 10.0 mi East 3.5 mph - N/A   Overcast
1:53 AM 52.0 °F 48.9 °F 89% 30.09 in 10.0 mi Calm Calm - N/A   Mostly Cloudy
2:53 AM 51.1 °F 48.9 °F 92% 30.07 in 10.0 mi Calm Calm - N/A   Mostly Cloudy
3:20 AM 50.0 °F 48.2 °F 94% 30.07 in 9.0 mi Calm Calm - N/A   Mostly Cloudy
3:53 AM 50.0 °F 48.9 °F 96% 30.07 in 8.0 mi NE 3.5 mph - N/A   Overcast
4:15 AM 50.0 °F 48.2 °F 94% 30.08 in 9.0 mi ENE 3.5 mph - N/A   Overcast
4:42 AM 48.2 °F 48.2 °F 100% 30.07 in 9.0 mi ENE 3.5 mph - N/A   Scattered Clouds
4:53 AM 48.9 °F 48.0 °F 97% 30.07 in 9.0 mi East 3.5 mph - N/A   Scattered Clouds
5:53 AM 50.0 °F 48.0 °F 93% 30.05 in 9.0 mi SE 4.6 mph - N/A   Mostly Cloudy
6:06 AM 50.0 °F 48.2 °F 94% 30.05 in 9.0 mi Calm Calm - N/A   Scattered Clouds
6:18 AM 50.0 °F 48.2 °F 94% 30.05 in 9.0 mi Calm Calm - N/A   Mostly Cloudy
6:53 AM 50.0 °F 48.0 °F 93% 30.06 in 9.0 mi NE 3.5 mph - N/A   Overcast
7:53 AM 52.0 °F 48.9 °F 89% 30.05 in 9.0 mi ENE 3.5 mph - N/A   Mostly Cloudy
8:53 AM 54.0 °F 48.9 °F 83% 30.06 in 10.0 mi Calm Calm - N/A   Mostly Cloudy
9:05 AM 53.6 °F 48.2 °F 82% 30.06 in 10.0 mi Calm Calm - N/A   Scattered Clouds
9:26 AM 55.4 °F 50.0 °F 82% 30.05 in 10.0 mi Calm Calm - N/A   Clear
9:53 AM 57.9 °F 50.0 °F 75% 30.05 in 10.0 mi Calm Calm - N/A   Clear
10:53 AM 61.0 °F 51.1 °F 70% 30.03 in 10.0 mi West 5.8 mph - N/A   Scattered Clouds
11:04 AM 62.6 °F 51.8 °F 68% 30.03 in 10.0 mi West 6.9 mph - N/A   Mostly Cloudy
11:46 AM 64.4 °F 53.6 °F 68% 30.01 in 10.0 mi West 6.9 mph - N/A   Scattered Clouds
11:53 AM 64.9 °F 54.0 °F 68% 30.00 in 10.0 mi NNW 6.9 mph - N/A   Mostly Cloudy
12:33 PM 64.4 °F 55.4 °F 73% 29.99 in 10.0 mi NNW 9.2 mph - N/A   Mostly Cloudy
12:45 PM 64.4 °F 53.6 °F 68% 29.99 in 9.0 mi NW 9.2 mph - N/A   Mostly Cloudy
12:53 PM 64.0 °F 54.0 °F 70% 29.98 in 9.0 mi NW 10.4 mph - N/A   Overcast
1:53 PM 64.0 °F 53.1 °F 67% 29.96 in 9.0 mi West 11.5 mph - N/A   Partly Cloudy
2:53 PM 64.9 °F 52.0 °F 63% 29.96 in 10.0 mi WNW 10.4 mph - N/A   Clear
3:53 PM 66.9 °F 51.1 °F 57% 29.95 in 10.0 mi West 10.4 mph - N/A   Clear
4:53 PM 64.9 °F 51.1 °F 61% 29.96 in 10.0 mi WNW 3.5 mph - N/A   Clear
5:53 PM 55.9 °F 51.1 °F 84% 29.97 in 10.0 mi Calm Calm - N/A   Clear
6:53 PM 57.0 °F 51.1 °F 81% 29.99 in 10.0 mi Calm Calm - N/A   Clear
7:53 PM 57.9 °F 46.0 °F 65% 30.00 in 10.0 mi WNW 3.5 mph - N/A   Clear
8:53 PM 57.0 °F 44.1 °F 62% 30.03 in 10.0 mi NNW 6.9 mph - N/A   Clear
9:53 PM 54.0 °F 43.0 °F 66% 30.04 in 10.0 mi NW 6.9 mph - N/A   Clear
10:53 PM 52.0 °F 43.0 °F 71% 30.04 in 10.0 mi North 6.9 mph - N/A   Clear
11:53 PM 50.0 °F 43.0 °F 77% 30.04 in 10.0 mi NNW 5.8 mph - N/A   Clear